| time (UTC) | temp F | wind direction | speed MPH | gust MPH | rain 1hr in | rain 24hr in | rain mn in | humidity % | barometer mb |
| 20260504204409 | 68 | 99 | 3.0 | 8.0 | 0.00 | 0.00 | 0.00 | 66 | 1012.2 |
| 20260504203909 | 68 | 157 | 3.0 | 10.0 | 0.00 | 0.00 | 0.00 | 67 | 1012.3 |
| 20260504203408 | 67 | 103 | 1.0 | 10.0 | 0.00 | 0.00 | 0.00 | 66 | 1012.3 |
| 20260504202908 | 67 | 87 | 5.0 | 11.0 | 0.00 | 0.00 | 0.00 | 67 | 1012.3 |
| 20260504202409 | 68 | 109 | 7.0 | 11.0 | 0.00 | 0.00 | 0.00 | 68 | 1012.3 |
| 20260504201908 | 68 | 44 | 2.0 | 8.0 | 0.00 | 0.00 | 0.00 | 67 | 1012.3 |
| 20260504201409 | 68 | 132 | 4.0 | 7.0 | 0.00 | 0.00 | 0.00 | 67 | 1012.3 |
| 20260504200909 | 67 | 132 | 4.0 | 7.0 | 0.00 | 0.00 | 0.00 | 69 | 1012.4 |
| 20260504200409 | 67 | 175 | 3.0 | 7.0 | 0.00 | 0.00 | 0.00 | 69 | 1012.4 |
| 20260504195408 | 66 | 186 | 2.0 | 8.0 | 0.00 | 0.00 | 0.00 | 69 | 1012.5 |
| 20260504194908 | 66 | 119 | 3.0 | 8.0 | 0.00 | 0.00 | 0.00 | 69 | 1012.5 |
| 20260504194408 | 66 | 150 | 1.0 | 8.0 | 0.00 | 0.00 | 0.00 | 68 | 1012.5 |
| 20260504193908 | 66 | 107 | 3.0 | 9.0 | 0.00 | 0.00 | 0.00 | 70 | 1012.5 |
| 20260504193408 | 66 | 157 | 6.0 | 9.0 | 0.00 | 0.00 | 0.00 | 69 | 1012.5 |
| 20260504192908 | 66 | 196 | 2.0 | 6.0 | 0.00 | 0.00 | 0.00 | 69 | 1012.5 |
| 20260504192408 | 66 | 187 | 4.0 | 7.0 | 0.00 | 0.00 | 0.00 | 70 | 1012.5 |
| 20260504191408 | 66 | 132 | 7.0 | 8.0 | 0.00 | 0.00 | 0.00 | 71 | 1012.5 |
| 20260504190908 | 66 | 168 | 3.0 | 8.0 | 0.00 | 0.00 | 0.00 | 70 | 1012.7 |
| 20260504190408 | 65 | 160 | 2.0 | 6.0 | 0.00 | 0.00 | 0.00 | 69 | 1012.7 |
| 20260504172928 | 61 | 0.0 | 2.0 | 0.00 | 0.00 | 0.00 | 77 | 1012.9 | |
| 20260504172429 | 61 | 1.0 | 2.0 | 0.00 | 0.00 | 0.00 | 78 | 1013.1 | |
| 20260504171928 | 60 | 0.0 | 2.0 | 0.00 | 0.00 | 0.00 | 80 | 1013.1 | |
| 20260504171428 | 60 | 0.0 | 0.0 | 0.00 | 0.00 | 0.00 | 81 | 1013.1 | |
| 20260504170429 | 59 | 0.0 | 4.0 | 0.00 | 0.00 | 0.00 | 81 | 1013.0 | |
| 20260504160428 | 56 | 0.0 | 0.0 | 0.00 | 0.00 | 0.00 | 87 | 1013.1 | |
| 20260504130425 | 49 | 0.0 | 0.0 | 0.00 | 0.00 | 0.00 | 93 | 1011.1 | |
| 20260504110424 | 52 | 0.0 | 0.0 | 0.00 | 0.00 | 0.00 | 89 | 1010.5 | |
| 20260504100424 | 54 | 0.0 | 0.0 | 0.00 | 0.00 | 0.00 | 86 | 1010.1 | |
| 20260504081922 | 57 | 0.0 | 2.0 | 0.00 | 0.00 | 0.00 | 79 | 1009.2 | |
| 20260504081423 | 57 | 0.0 | 0.0 | 0.00 | 0.00 | 0.00 | 79 | 1009.2 | |
| 20260504080922 | 57 | 0.0 | 0.0 | 0.00 | 0.00 | 0.00 | 78 | 1009.1 | |
| 20260504080422 | 57 | 0.0 | 1.0 | 0.00 | 0.00 | 0.00 | 78 | 1009.1 | |
| 20260504050420 | 70 | 0.0 | 0.0 | 0.00 | 0.00 | 0.00 | 51 | 1007.0 | |
| 20260504045920 | 71 | 0.0 | 0.0 | 0.00 | 0.00 | 0.00 | 50 | 1007.1 | |
| 20260504045420 | 71 | 0.0 | 0.0 | 0.00 | 0.00 | 0.00 | 49 | 1006.9 | |
| 20260504044920 | 72 | 0.0 | 0.0 | 0.00 | 0.00 | 0.00 | 48 | 1006.9 | |
| 20260504044419 | 72 | 0.0 | 0.0 | 0.00 | 0.00 | 0.00 | 47 | 1006.9 | |
| 20260504043419 | 72 | 0.0 | 0.0 | 0.00 | 0.00 | 0.00 | 46 | 1006.6 | |
| 20260504042919 | 72 | 0.0 | 0.0 | 0.00 | 0.00 | 0.00 | 46 | 1006.6 | |
| 20260504042419 | 72 | 0.0 | 0.0 | 0.00 | 0.00 | 0.00 | 46 | 1006.4 | |
| 20260504041920 | 73 | 0.0 | 0.0 | 0.00 | 0.00 | 0.00 | 46 | 1006.4 | |
| 20260504041420 | 73 | 0.0 | 0.0 | 0.00 | 0.00 | 0.00 | 46 | 1006.4 | |
| 20260504040419 | 74 | 0.0 | 0.0 | 0.00 | 0.00 | 0.00 | 45 | 1006.5 | |
| 20260504035919 | 74 | 0.0 | 0.0 | 0.00 | 0.00 | 0.00 | 44 | 1006.5 | |
| 20260504035419 | 75 | 0.0 | 0.0 | 0.00 | 0.00 | 0.00 | 44 | 1006.4 | |
| 20260504034919 | 75 | 0.0 | 0.0 | 0.00 | 0.00 | 0.00 | 42 | 1006.4 | |
| 20260504034419 | 76 | 0.0 | 0.0 | 0.00 | 0.00 | 0.00 | 41 | 1006.4 | |
| 20260504033919 | 76 | 0.0 | 0.0 | 0.00 | 0.00 | 0.00 | 39 | 1006.3 | |
| 20260504033419 | 77 | 0.0 | 0.0 | 0.00 | 0.00 | 0.00 | 38 | 1006.3 | |
| 20260504032919 | 77 | 0.0 | 0.0 | 0.00 | 0.00 | 0.00 | 38 | 1006.3 | |
| 20260504032419 | 78 | 0.0 | 0.0 | 0.00 | 0.00 | 0.00 | 38 | 1006.2 | |
| 20260504031919 | 79 | 0.0 | 0.0 | 0.00 | 0.00 | 0.00 | 37 | 1006.2 | |
| 20260504031419 | 79 | 0.0 | 0.0 | 0.00 | 0.00 | 0.00 | 36 | 1006.2 | |
| 20260504030919 | 79 | 0.0 | 0.0 | 0.00 | 0.00 | 0.00 | 35 | 1006.1 | |
| 20260504030419 | 80 | 0.0 | 0.0 | 0.00 | 0.00 | 0.00 | 35 | 1006.2 | |
| 20260504025919 | 80 | 0.0 | 0.0 | 0.00 | 0.00 | 0.00 | 35 | 1006.2 | |
| 20260504025419 | 80 | 0.0 | 0.0 | 0.00 | 0.00 | 0.00 | 35 | 1006.1 | |
| 20260504024919 | 81 | 0.0 | 0.0 | 0.00 | 0.00 | 0.00 | 36 | 1006.1 | |
| 20260504024419 | 81 | 0.0 | 0.0 | 0.00 | 0.00 | 0.00 | 35 | 1006.1 | |
| 20260504023919 | 81 | 0.0 | 0.0 | 0.00 | 0.00 | 0.00 | 35 | 1006.1 | |
| 20260504023419 | 82 | 0.0 | 0.0 | 0.00 | 0.00 | 0.00 | 34 | 1006.1 | |
| 20260504022919 | 82 | 0.0 | 0.0 | 0.00 | 0.00 | 0.00 | 35 | 1006.1 | |
| 20260504022419 | 82 | 0.0 | 0.0 | 0.00 | 0.00 | 0.00 | 35 | 1006.1 | |
| 20260504021918 | 83 | 0.0 | 0.0 | 0.00 | 0.00 | 0.00 | 36 | 1006.1 | |
| 20260504021418 | 83 | 0.0 | 0.0 | 0.00 | 0.00 | 0.00 | 33 | 1006.1 | |
| 20260504020918 | 83 | 0.0 | 0.0 | 0.00 | 0.00 | 0.00 | 32 | 1006.2 | |
| 20260504020418 | 84 | 0.0 | 0.0 | 0.00 | 0.00 | 0.00 | 30 | 1006.2 | |
| 20260504015918 | 84 | 0.0 | 0.0 | 0.00 | 0.00 | 0.00 | 30 | 1006.2 | |
| 20260504015418 | 84 | 0.0 | 0.0 | 0.00 | 0.00 | 0.00 | 31 | 1006.2 | |
| 20260504014918 | 85 | 0.0 | 2.0 | 0.00 | 0.00 | 0.00 | 32 | 1006.2 | |
| 20260504014418 | 85 | 0.0 | 2.0 | 0.00 | 0.00 | 0.00 | 29 | 1006.2 | |
| 20260504013918 | 85 | 0.0 | 1.0 | 0.00 | 0.00 | 0.00 | 28 | 1006.2 | |
| 20260504013418 | 85 | 0.0 | 2.0 | 0.00 | 0.00 | 0.00 | 27 | 1006.2 | |
| 20260504012918 | 85 | 0.0 | 2.0 | 0.00 | 0.00 | 0.00 | 28 | 1006.2 | |
| 20260504012417 | 85 | 0.0 | 2.0 | 0.00 | 0.00 | 0.00 | 28 | 1006.3 | |
| 20260504011918 | 85 | 0.0 | 2.0 | 0.00 | 0.00 | 0.00 | 28 | 1006.3 | |
| 20260504011417 | 85 | 0.0 | 0.0 | 0.00 | 0.00 | 0.00 | 29 | 1006.3 | |
| 20260504010917 | 86 | 0.0 | 0.0 | 0.00 | 0.00 | 0.00 | 31 | 1006.4 | |
| 20260504010417 | 86 | 0.0 | 1.0 | 0.00 | 0.00 | 0.00 | 30 | 1006.4 | |
| 20260504005918 | 86 | 0.0 | 1.0 | 0.00 | 0.00 | 0.00 | 29 | 1006.4 | |
| 20260504004417 | 87 | 0.0 | 3.0 | 0.00 | 0.00 | 0.00 | 29 | 1006.4 | |
| 20260504003417 | 87 | 1.0 | 3.0 | 0.00 | 0.00 | 0.00 | 30 | 1006.6 | |
| 20260504002417 | 87 | 1.0 | 5.0 | 0.00 | 0.00 | 0.00 | 27 | 1006.7 | |
| 20260503233916 | 88 | 2.0 | 4.0 | 0.00 | 0.00 | 0.00 | 26 | 1006.9 | |
| 20260503232416 | 87 | 0.0 | 5.0 | 0.00 | 0.00 | 0.00 | 27 | 1007.0 | |
| 20260503230917 | 87 | 0.0 | 4.0 | 0.00 | 0.00 | 0.00 | 27 | 1007.3 | |
| 20260503230416 | 87 | 0.0 | 5.0 | 0.00 | 0.00 | 0.00 | 28 | 1007.3 | |
| 20260503225416 | 87 | 1.0 | 4.0 | 0.00 | 0.00 | 0.00 | 27 | 1007.6 | |
| 20260503222416 | 87 | 1.0 | 5.0 | 0.00 | 0.00 | 0.00 | 31 | 1008.0 | |
| 20260503221417 | 88 | 0.0 | 1.0 | 0.00 | 0.00 | 0.00 | 32 | 1008.0 | |
| 20260503220417 | 87 | 0.0 | 4.0 | 0.00 | 0.00 | 0.00 | 36 | 1008.2 | |
| 20260503215916 | 87 | 1.0 | 4.0 | 0.00 | 0.00 | 0.00 | 34 | 1008.2 | |
| 20260503215417 | 87 | 0.0 | 4.0 | 0.00 | 0.00 | 0.00 | 38 | 1008.5 | |
| 20260503214916 | 86 | 3.0 | 5.0 | 0.00 | 0.00 | 0.00 | 39 | 1008.5 | |
| 20260503213916 | 86 | 0.0 | 3.0 | 0.00 | 0.00 | 0.00 | 36 | 1008.6 | |
| 20260503211417 | 84 | 0.0 | 5.0 | 0.00 | 0.00 | 0.00 | 38 | 1008.8 | |
| 20260503210417 | 85 | 0.0 | 3.0 | 0.00 | 0.00 | 0.00 | 41 | 1009.0 | |
| 20260503205917 | 84 | 0.0 | 5.0 | 0.00 | 0.00 | 0.00 | 45 | 1009.0 | |
| 20260503205417 | 83 | 0.0 | 5.0 | 0.00 | 0.00 | 0.00 | 44 | 1009.1 |